Location: Unspecified
(41.9000°N, 12.4830°E)
Time: 09:13:08
(UTC+02:00)

ISS - Pass Details

Date: 15 September 2017
Orbit: 401 x 407 km, 51.6° (Epoch: 23 September)

Event Time Altitude Azimuth Distance (km) Brightness Sun altitude
Exits shadow 05:19:23 10° 326° (NW) 1,474 -1.1 -17.3°
Reaches altitude 10° 05:19:23 10° 326° (NW) 1,473 -1.1 -17.3°
Maximum altitude 05:21:51 19° 14° (NNE) 1,043 -1.4 -16.8°
Drops below altitude 10° 05:24:18 10° 63° (ENE) 1,471 0.3 -16.4°
Sets 05:26:48 0° 82° (E) 2,329 1.7 -16.0°
